Time,TemperatureF,DewpointF,PressureIn,WindDirection,WindDirectionDegrees,WindSpeedMPH,WindSpeedGustMPH,Humidity,HourlyPrecipIn,Conditions,Clouds,dailyrainin,SoftwareType,DateUTC
2013-03-03 00:02:00,34.0,33.0,29.58,NW,313,3.0,5.0,96,0.00,,,0.19,,2013-03-03 05:02:00,
2013-03-03 00:12:00,34.0,33.0,29.58,NW,313,3.0,5.0,96,0.00,,,0.19,,2013-03-03 05:12:00,
2013-03-03 00:22:00,34.0,33.0,29.58,NW,304,3.0,6.0,96,0.00,,,0.19,,2013-03-03 05:22:00,
2013-03-03 00:32:00,34.0,33.0,29.58,NW,325,5.0,7.0,96,0.00,,,0.19,,2013-03-03 05:32:00,
2013-03-03 00:42:00,34.0,33.0,29.58,NW,325,5.0,7.0,96,0.00,,,0.19,,2013-03-03 05:42:00,
2013-03-03 00:52:00,34.0,33.0,29.58,NW,318,4.0,6.0,96,0.00,,,0.19,,2013-03-03 05:52:00,
2013-03-03 01:02:00,34.0,33.0,29.58,NW,315,5.0,7.0,96,0.00,,,0.19,,2013-03-03 06:02:00,
2013-03-03 01:11:00,34.0,33.0,29.58,NW,315,5.0,7.0,96,0.00,,,0.19,,2013-03-03 06:11:00,
2013-03-03 01:21:00,34.0,33.0,29.57,NW,317,5.0,7.0,96,0.00,,,0.19,,2013-03-03 06:21:00,
2013-03-03 01:32:00,34.0,33.0,29.57,NW,323,4.0,8.0,96,0.00,,,0.19,,2013-03-03 06:32:00,
2013-03-03 01:42:00,34.0,33.0,29.57,NW,323,4.0,8.0,96,0.00,,,0.19,,2013-03-03 06:42:00,
2013-03-03 01:52:00,34.0,33.0,29.57,NW,318,5.0,8.0,96,0.00,,,0.19,,2013-03-03 06:52:00,
2013-03-03 02:01:00,34.0,33.0,29.57,NW,315,5.0,8.0,96,0.00,,,0.19,,2013-03-03 07:01:00,
2013-03-03 02:11:00,34.0,33.0,29.57,NW,315,5.0,8.0,96,0.00,,,0.19,,2013-03-03 07:11:00,
2013-03-03 02:21:00,34.0,33.0,29.57,NW,315,5.0,8.0,96,0.00,,,0.19,,2013-03-03 07:21:00,
2013-03-03 02:32:00,34.0,33.0,29.57,NNW,336,5.0,10.0,96,0.00,,,0.19,,2013-03-03 07:32:00,
2013-03-03 02:42:00,34.0,33.0,29.57,NNW,336,5.0,10.0,96,0.00,,,0.19,,2013-03-03 07:42:00,
2013-03-03 02:52:00,34.0,33.0,29.56,North,350,5.0,8.0,96,0.00,,,0.19,,2013-03-03 07:52:00,
2013-03-03 03:01:00,34.0,33.0,29.56,North,350,6.0,10.0,96,0.00,,,0.19,,2013-03-03 08:01:00,
2013-03-03 03:11:00,34.0,33.0,29.56,North,350,6.0,10.0,96,0.00,,,0.19,,2013-03-03 08:11:00,
2013-03-03 03:21:00,34.0,33.0,29.56,NW,323,5.0,10.0,96,0.00,,,0.19,,2013-03-03 08:21:00,
2013-03-03 03:32:00,34.0,33.0,29.56,NNW,347,5.0,7.0,96,0.00,,,0.19,,2013-03-03 08:32:00,
2013-03-03 03:42:00,34.0,33.0,29.56,NNW,347,5.0,7.0,96,0.00,,,0.19,,2013-03-03 08:42:00,
2013-03-03 03:53:00,34.0,33.0,29.56,NNW,340,4.0,7.0,96,0.00,,,0.19,,2013-03-03 08:53:00,
2013-03-03 04:02:00,34.0,33.0,29.56,NNW,341,5.0,8.0,96,0.00,,,0.19,,2013-03-03 09:02:00,
2013-03-03 04:12:00,34.0,33.0,29.56,NNW,341,5.0,8.0,96,0.00,,,0.19,,2013-03-03 09:12:00,
2013-03-03 04:21:00,34.0,33.0,29.56,NNW,341,5.0,7.0,96,0.00,,,0.19,,2013-03-03 09:21:00,
2013-03-03 04:32:00,34.0,33.0,29.56,NNW,335,4.0,7.0,96,0.00,,,0.19,,2013-03-03 09:32:00,
2013-03-03 04:42:00,34.0,33.0,29.56,NNW,335,4.0,7.0,96,0.00,,,0.19,,2013-03-03 09:42:00,
2013-03-03 04:51:00,34.0,33.0,29.56,NW,304,2.0,4.0,96,0.00,,,0.19,,2013-03-03 09:51:00,
2013-03-03 05:01:00,34.0,33.0,29.56,NNW,329,3.0,6.0,96,0.00,,,0.19,,2013-03-03 10:01:00,
2013-03-03 05:11:00,34.0,33.0,29.56,NNW,329,3.0,6.0,96,0.00,,,0.19,,2013-03-03 10:11:00,
2013-03-03 05:21:00,34.0,33.0,29.56,NW,318,3.0,6.0,96,0.00,,,0.19,,2013-03-03 10:21:00,
2013-03-03 05:32:00,33.0,32.0,29.56,NW,310,4.0,7.0,96,0.00,,,0.19,,2013-03-03 10:32:00,
2013-03-03 05:42:00,33.0,32.0,29.56,NW,310,4.0,7.0,96,0.00,,,0.19,,2013-03-03 10:42:00,
2013-03-03 05:52:00,33.0,32.0,29.56,NNW,336,5.0,8.0,96,0.00,,,0.19,,2013-03-03 10:52:00,
2013-03-03 06:01:00,33.0,32.0,29.56,NW,323,5.0,8.0,96,0.00,,,0.19,,2013-03-03 11:01:00,
2013-03-03 06:11:00,33.0,32.0,29.56,NW,323,5.0,8.0,96,0.00,,,0.19,,2013-03-03 11:11:00,
2013-03-03 06:22:00,33.0,32.0,29.56,NNW,338,5.0,9.0,96,0.00,,,0.19,,2013-03-03 11:22:00,
2013-03-03 06:32:00,33.0,32.0,29.56,NW,324,6.0,9.0,96,0.00,,,0.19,,2013-03-03 11:32:00,
2013-03-03 06:42:00,33.0,32.0,29.56,NW,324,6.0,9.0,96,0.00,,,0.19,,2013-03-03 11:42:00,
2013-03-03 06:52:00,34.0,33.0,29.56,NW,314,5.0,10.0,96,0.00,,,0.19,,2013-03-03 11:52:00,
2013-03-03 07:02:00,34.0,33.0,29.57,NNW,346,5.0,7.0,96,0.00,,,0.19,,2013-03-03 12:02:00,
2013-03-03 07:11:00,34.0,33.0,29.57,NNW,346,5.0,7.0,96,0.00,,,0.19,,2013-03-03 12:11:00,
2013-03-03 07:21:00,34.0,33.0,29.56,NNW,348,4.0,6.0,96,0.00,,,0.19,,2013-03-03 12:21:00,
2013-03-03 07:32:00,34.0,33.0,29.56,North,355,5.0,10.0,96,0.00,,,0.19,,2013-03-03 12:32:00,
2013-03-03 07:43:00,34.0,33.0,29.56,North,355,5.0,10.0,96,0.00,,,0.19,,2013-03-03 12:43:00,
2013-03-03 07:52:00,35.0,34.0,29.56,NW,323,5.0,9.0,97,0.00,,,0.19,,2013-03-03 12:52:00,
2013-03-03 08:02:00,36.0,35.0,29.56,NW,325,5.0,9.0,97,0.00,,,0.19,,2013-03-03 13:02:00,
2013-03-03 08:11:00,36.0,35.0,29.56,NW,325,5.0,9.0,97,0.00,,,0.19,,2013-03-03 13:11:00,
2013-03-03 08:22:00,36.0,35.0,29.56,North,360,4.0,10.0,96,0.00,,,0.19,,2013-03-03 13:22:00,
2013-03-03 08:32:00,37.0,36.0,29.57,NW,318,5.0,9.0,96,0.00,,,0.19,,2013-03-03 13:32:00,
2013-03-03 08:42:00,37.0,36.0,29.57,NW,318,5.0,9.0,96,0.00,,,0.19,,2013-03-03 13:42:00,
2013-03-03 08:52:00,37.0,36.0,29.57,NNW,333,8.0,11.0,95,0.00,,,0.19,,2013-03-03 13:52:00,
2013-03-03 09:02:00,37.0,35.0,29.56,NNW,331,6.0,9.0,94,0.00,,,0.19,,2013-03-03 14:02:00,
2013-03-03 09:11:00,37.0,35.0,29.56,NNW,331,6.0,9.0,94,0.00,,,0.19,,2013-03-03 14:11:00,
2013-03-03 09:21:00,38.0,36.0,29.56,North,360,8.0,11.0,94,0.00,,,0.19,,2013-03-03 14:21:00,
2013-03-03 09:32:00,39.0,37.0,29.56,North,5,7.0,12.0,92,0.00,,,0.16,,2013-03-03 14:32:00,
2013-03-03 09:42:00,39.0,37.0,29.56,North,5,7.0,12.0,92,0.00,,,0.16,,2013-03-03 14:42:00,
2013-03-03 09:52:00,39.0,37.0,29.55,NNW,347,7.0,11.0,91,0.00,,,0.16,,2013-03-03 14:52:00,
2013-03-03 10:02:00,39.0,36.0,29.55,North,5,8.0,12.0,90,0.00,,,0.16,,2013-03-03 15:02:00,
2013-03-03 10:11:00,39.0,36.0,29.55,North,5,8.0,12.0,90,0.00,,,0.16,,2013-03-03 15:11:00,
2013-03-03 10:22:00,38.0,36.0,29.55,North,360,9.0,11.0,91,0.00,,,0.16,,2013-03-03 15:22:00,
2013-03-03 10:32:00,38.0,35.0,29.54,NNW,345,6.0,11.0,90,0.00,,,0.13,,2013-03-03 15:32:00,
2013-03-03 10:42:00,38.0,35.0,29.54,NNW,345,6.0,11.0,90,0.00,,,0.13,,2013-03-03 15:42:00,
2013-03-03 10:52:00,38.0,35.0,29.54,North,5,7.0,9.0,90,0.00,,,0.13,,2013-03-03 15:52:00,
2013-03-03 11:02:00,39.0,36.0,29.54,North,5,6.0,8.0,90,0.00,,,0.13,,2013-03-03 16:02:00,
2013-03-03 11:12:00,39.0,36.0,29.54,North,5,6.0,8.0,90,0.00,,,0.13,,2013-03-03 16:12:00,
2013-03-03 11:22:00,39.0,36.0,29.54,North,355,5.0,9.0,89,0.00,,,0.13,,2013-03-03 16:22:00,
2013-03-03 11:32:00,40.0,37.0,29.53,NE,40,4.0,6.0,89,0.00,,,0.11,,2013-03-03 16:32:00,
2013-03-03 11:42:00,40.0,37.0,29.53,NE,40,4.0,6.0,89,0.00,,,0.11,,2013-03-03 16:42:00,
2013-03-03 11:52:00,40.0,38.0,29.53,NNE,31,3.0,7.0,91,0.00,,,0.11,,2013-03-03 16:52:00,
2013-03-03 12:01:00,40.0,37.0,29.52,NNW,331,5.0,10.0,89,0.00,,,0.11,,2013-03-03 17:01:00,
2013-03-03 12:11:00,40.0,36.0,29.52,North,360,5.0,7.0,87,0.00,,,0.11,,2013-03-03 17:11:00,
2013-03-03 12:22:00,40.0,36.0,29.52,North,360,5.0,7.0,87,0.00,,,0.11,,2013-03-03 17:22:00,
2013-03-03 12:32:00,41.0,37.0,29.52,WSW,247,2.0,5.0,87,0.00,,,0.10,,2013-03-03 17:32:00,
2013-03-03 12:42:00,41.0,37.0,29.52,WSW,247,2.0,5.0,87,0.00,,,0.10,,2013-03-03 17:42:00,
2013-03-03 12:52:00,40.0,36.0,29.52,NNE,30,4.0,8.0,85,0.00,,,0.10,,2013-03-03 17:52:00,
2013-03-03 13:02:00,39.0,36.0,29.51,North,5,1.0,5.0,88,0.00,,,0.10,,2013-03-03 18:02:00,
2013-03-03 13:11:00,39.0,36.0,29.51,North,5,1.0,5.0,88,0.00,,,0.10,,2013-03-03 18:11:00,
2013-03-03 13:21:00,40.0,37.0,29.51,ESE,122,1.0,3.0,89,0.00,,,0.10,,2013-03-03 18:21:00,
2013-03-03 13:32:00,39.0,35.0,29.51,WNW,285,2.0,10.0,87,0.01,,,0.11,,2013-03-03 18:32:00,
2013-03-03 13:42:00,39.0,35.0,29.51,WNW,285,2.0,10.0,87,0.01,,,0.11,,2013-03-03 18:42:00,
2013-03-03 13:52:00,40.0,37.0,29.50,West,279,0.0,3.0,90,0.01,,,0.11,,2013-03-03 18:52:00,
2013-03-03 14:02:00,40.0,38.0,29.50,ESE,120,3.0,7.0,91,0.01,,,0.11,,2013-03-03 19:02:00,
2013-03-03 14:11:00,40.0,38.0,29.50,ESE,120,3.0,7.0,91,0.01,,,0.11,,2013-03-03 19:11:00,
2013-03-03 14:22:00,39.0,37.0,29.50,NW,323,5.0,10.0,91,0.03,,,0.13,,2013-03-03 19:22:00,
2013-03-03 14:32:00,40.0,38.0,29.50,West,259,2.0,7.0,92,0.02,,,0.13,,2013-03-03 19:32:00,
2013-03-03 14:42:00,40.0,38.0,29.50,West,259,2.0,7.0,92,0.02,,,0.13,,2013-03-03 19:42:00,
2013-03-03 14:52:00,40.0,38.0,29.50,West,275,5.0,8.0,91,0.02,,,0.13,,2013-03-03 19:52:00,
2013-03-03 15:01:00,40.0,38.0,29.50,West,275,4.0,8.0,91,0.02,,,0.13,,2013-03-03 20:01:00,
2013-03-03 15:11:00,40.0,38.0,29.50,West,275,4.0,8.0,91,0.02,,,0.13,,2013-03-03 20:11:00,
2013-03-03 15:22:00,40.0,37.0,29.49,WNW,293,5.0,9.0,89,0.00,,,0.13,,2013-03-03 20:22:00,
2013-03-03 15:32:00,40.0,37.0,29.49,WSW,258,5.0,9.0,89,0.00,,,0.13,,2013-03-03 20:32:00,
2013-03-03 15:42:00,40.0,37.0,29.49,WSW,258,5.0,9.0,89,0.00,,,0.13,,2013-03-03 20:42:00,
2013-03-03 15:52:00,39.0,36.0,29.49,West,278,7.0,10.0,90,0.00,,,0.13,,2013-03-03 20:52:00,
2013-03-03 16:02:00,39.0,37.0,29.49,WNW,286,5.0,9.0,91,0.00,,,0.13,,2013-03-03 21:02:00,
2013-03-03 16:11:00,39.0,37.0,29.49,WNW,286,5.0,9.0,91,0.00,,,0.13,,2013-03-03 21:11:00,
2013-03-03 16:22:00,39.0,37.0,29.49,WNW,286,5.0,9.0,91,0.00,,,0.13,,2013-03-03 21:22:00,
2013-03-03 16:32:00,39.0,37.0,29.50,WNW,285,4.0,8.0,91,0.00,,,0.12,,2013-03-03 21:32:00,
2013-03-03 16:42:00,39.0,37.0,29.50,WNW,285,4.0,8.0,91,0.00,,,0.12,,2013-03-03 21:42:00,
2013-03-03 16:52:00,39.0,37.0,29.49,West,261,5.0,8.0,91,0.00,,,0.12,,2013-03-03 21:52:00,
2013-03-03 17:02:00,38.0,36.0,29.50,West,271,4.0,6.0,91,0.00,,,0.12,,2013-03-03 22:02:00,
2013-03-03 17:11:00,38.0,36.0,29.50,West,271,4.0,6.0,91,0.00,,,0.12,,2013-03-03 22:11:00,
2013-03-03 17:22:00,38.0,36.0,29.50,West,273,5.0,7.0,91,0.00,,,0.12,,2013-03-03 22:22:00,
2013-03-03 17:32:00,37.0,35.0,29.49,WSW,255,4.0,7.0,92,0.00,,,0.09,,2013-03-03 22:32:00,
2013-03-03 17:42:00,37.0,35.0,29.49,WSW,255,4.0,7.0,92,0.00,,,0.09,,2013-03-03 22:42:00,
2013-03-03 17:52:00,37.0,35.0,29.50,West,273,5.0,7.0,92,0.00,,,0.09,,2013-03-03 22:52:00,
2013-03-03 18:02:00,37.0,35.0,29.49,West,271,4.0,6.0,92,0.00,,,0.09,,2013-03-03 23:02:00,
2013-03-03 18:11:00,37.0,35.0,29.49,West,271,4.0,6.0,92,0.00,,,0.09,,2013-03-03 23:11:00,
2013-03-03 18:21:00,37.0,35.0,29.49,WSW,252,4.0,5.0,93,0.00,,,0.09,,2013-03-03 23:21:00,
2013-03-03 18:32:00,36.0,34.0,29.49,West,262,4.0,6.0,93,0.00,,,0.08,,2013-03-03 23:32:00,
2013-03-03 18:42:00,36.0,34.0,29.49,West,262,4.0,6.0,93,0.00,,,0.08,,2013-03-03 23:42:00,
2013-03-03 18:52:00,36.0,34.0,29.49,West,263,5.0,6.0,93,0.00,,,0.08,,2013-03-03 23:52:00,
2013-03-03 19:02:00,36.0,34.0,29.49,West,261,6.0,7.0,94,0.00,,,0.08,,2013-03-04 00:02:00,
2013-03-03 19:11:00,36.0,34.0,29.49,West,261,6.0,7.0,94,0.00,,,0.08,,2013-03-04 00:11:00,
2013-03-03 19:22:00,36.0,34.0,29.49,WSW,257,6.0,8.0,94,0.00,,,0.08,,2013-03-04 00:22:00,
2013-03-03 19:32:00,36.0,34.0,29.49,West,281,5.0,9.0,94,0.00,,,0.08,,2013-03-04 00:32:00,
2013-03-03 19:42:00,36.0,34.0,29.49,West,281,5.0,9.0,94,0.00,,,0.08,,2013-03-04 00:42:00,
2013-03-03 19:52:00,36.0,34.0,29.49,West,270,6.0,8.0,94,0.00,,,0.08,,2013-03-04 00:52:00,
2013-03-03 20:02:00,36.0,34.0,29.49,West,274,5.0,9.0,94,0.00,,,0.08,,2013-03-04 01:02:00,
2013-03-03 20:12:00,36.0,34.0,29.49,West,274,5.0,9.0,94,0.00,,,0.08,,2013-03-04 01:12:00,
2013-03-03 20:22:00,35.0,33.0,29.49,West,279,4.0,7.0,94,0.00,,,0.08,,2013-03-04 01:22:00,
2013-03-03 20:32:00,35.0,34.0,29.49,WNW,292,6.0,12.0,95,0.00,,,0.06,,2013-03-04 01:32:00,
2013-03-03 20:42:00,35.0,34.0,29.49,WNW,292,6.0,12.0,95,0.00,,,0.06,,2013-03-04 01:42:00,
2013-03-03 20:52:00,35.0,34.0,29.49,NW,306,7.0,12.0,95,0.00,,,0.06,,2013-03-04 01:52:00,
2013-03-03 21:01:00,35.0,34.0,29.49,WNW,292,9.0,15.0,95,0.00,,,0.06,,2013-03-04 02:01:00,
2013-03-03 21:11:00,35.0,34.0,29.49,WNW,292,9.0,15.0,95,0.00,,,0.06,,2013-03-04 02:11:00,
2013-03-03 21:22:00,35.0,34.0,29.49,West,280,8.0,13.0,95,0.00,,,0.06,,2013-03-04 02:22:00,
2013-03-03 21:32:00,35.0,33.0,29.48,WNW,302,7.0,11.0,94,0.00,,,0.04,,2013-03-04 02:32:00,
2013-03-03 21:42:00,35.0,33.0,29.48,WNW,302,7.0,11.0,94,0.00,,,0.04,,2013-03-04 02:42:00,
2013-03-03 21:52:00,35.0,33.0,29.48,West,281,8.0,13.0,94,0.00,,,0.04,,2013-03-04 02:52:00,
2013-03-03 22:02:00,35.0,33.0,29.48,West,267,7.0,11.0,94,0.00,,,0.04,,2013-03-04 03:02:00,
2013-03-03 22:11:00,35.0,33.0,29.48,West,267,7.0,11.0,94,0.00,,,0.04,,2013-03-04 03:11:00,
2013-03-03 22:22:00,35.0,33.0,29.48,West,267,7.0,11.0,94,0.00,,,0.04,,2013-03-04 03:22:00,
2013-03-03 22:32:00,35.0,33.0,29.47,WNW,288,7.0,12.0,94,0.00,,,0.03,,2013-03-04 03:32:00,
2013-03-03 22:42:00,35.0,33.0,29.47,NNW,329,5.0,11.0,94,0.00,,,0.03,,2013-03-04 03:42:00,
2013-03-03 22:53:00,35.0,33.0,29.47,NNW,329,5.0,11.0,94,0.00,,,0.03,,2013-03-04 03:53:00,
2013-03-03 23:01:00,35.0,33.0,29.47,WNW,288,5.0,12.0,94,0.00,,,0.03,,2013-03-04 04:01:00,
2013-03-03 23:11:00,35.0,33.0,29.47,WNW,288,5.0,12.0,94,0.00,,,0.03,,2013-03-04 04:11:00,
2013-03-03 23:22:00,35.0,33.0,29.47,West,274,7.0,11.0,94,0.00,,,0.03,,2013-03-04 04:22:00,
2013-03-03 23:32:00,34.0,32.0,29.47,WNW,296,5.0,11.0,93,0.00,,,0.03,,2013-03-04 04:32:00,
2013-03-03 23:42:00,34.0,32.0,29.47,WNW,296,5.0,11.0,93,0.00,,,0.03,,2013-03-04 04:42:00,
2013-03-03 23:52:00,34.0,32.0,29.47,WNW,282,4.0,11.0,93,0.00,,,0.03,,2013-03-04 04:52:00,